Regional Weather Roundup
Issued by NWS Goodland, KS

Home | Current Version | Previous Version | Graphics & Text | Print | Product List | Glossary On
Versions: 1 2 3 4 5 6 7 8 9 10 11 12 13 14 15 16 17 18 19 20 21 22 23 24 25 26 27 28 29 30 31 32 33 34 35 36 37 38 39 40 41 42 43 44 45 46 47 48 49 50
000
ASUS43 KGLD 221959
RWRGLD

GOODLAND FORECAST AREA HOURLY WEATHER ROUNDUP
NATIONAL WEATHER SERVICE GOODLAND KS
200 PM MDT FRI JUL 22 2016

...OFFICIAL OBSERVATIONS...

CITY           SKY/WX    TMP DP  RH WIND       PRES   REMARKS
GOODLAND KS    SUNNY     99  57  24 E10       30.07F
HILL CITY KS   MOSUNNY  100  70  37 SE7       29.96F HX 107
IMPERIAL NEB   MOSUNNY   98  62  30 NE10      30.04F
MCCOOK NEB     MOSUNNY  100  68  35 E8        29.99F HX 105
AKRON CO       SUNNY     93  56  28 CALM      30.15F
BURLINGTON CO  SUNNY     96  50  20 S6        30.12F
LIMON CO       SUNNY     93  45  19 S6G17     30.20F
$$

...UNOFFICIAL OBSERVATIONS...

CITY           SKY/WX    TMP DP  RH WIND       PRES   REMARKS
COLBY KS       SUNNY     99  68  36 N5        30.05S HX 104
LENORA KS        N/A     97  32  10 MISG        N/A
NORTON KS      SUNNY     93  57  29 NE10      29.99R
YUMA CO          N/A     93  62  35 SE9         N/A
$$




USA.gov is the U.S. government's official web portal to all federal, state and local government web resources and services.